Coleman, TX

6:55 PM CDT on May 29, 2017 (GMT -0500)
Coleman Municipal

Weather History for KCOM - June, 2014

Change the Weather History Date:

Saturday, June 7, 2014

  Actual Average (KABI) Record (KABI)
Temperature  
Mean Temperature 82 °F -  
Max Temperature 93 °F 87 °F 103 °F (1896)
Min Temperature 71 °F 64 °F 52 °F (1983)
Cooling Degree Days 17    
Growing Degree Days 32 (Base 50)    
Moisture  
Dew Point 63 °F    
Average Humidity 53    
Maximum Humidity 80    
Minimum Humidity 32    
Precipitation  
Precipitation 0.00 in - - ()
Sea Level Pressure  
Sea Level Pressure 29.91 in    
Wind  
Wind Speed 13 mph (SSE)    
Max Wind Speed 21 mph    
Max Gust Speed 29 mph    
Visibility 10 miles    
Events      
Averages and records for this station are not official NWS values.
T = Trace of Precipitation, MM = Missing Value Source: NWS Daily Summary

Daily Weather History Graph

Daily Weather History Graph

Search for Another Location

Airport or City:

Trip Planner

Search our weather history database for the weather conditions in past years. The results will help you decide how hot, cold, wet, or windy it might be!

Date:

Astronomy

Jun. 07, 2014 Rise Set
Actual Time 6:31 AM CDT 8:41 PM CDT
Civil Twilight 6:03 AM CDT 9:09 PM CDT
Nautical Twilight 5:29 AM CDT 9:43 PM CDT
Astronomical Twilight 4:52 AM CDT 10:20 PM CDT
Moon 3:18 PM CDT (6/7) 2:34 AM CDT (6/7)
Length of Visible Light 15h 05m
Length of Day
14h 09m
Waxing Gibbous, 68% of the Moon is Illuminated
Jun 7
Waxing Gibbous
Jun 12
Full
Jun 19
Last Quarter
Jun 27
New
Jul 5
First Quarter

Hourly Weather History & Observations

Time (CDT) Temp. Heat Index Dew Point Humidity Pressure Visibility Wind Dir Wind Speed Gust Speed Precip Events Conditions
12:15 AM 80.2 °F 81.8 °F 63.5 °F 57% 29.85 in 10.0 mi South 16.1 mph 23.0 mph N/A   Clear
12:35 AM 79.7 °F - 63.7 °F 58% 29.85 in 10.0 mi South 15.0 mph 20.7 mph N/A   Clear
12:55 AM 79.2 °F - 64.0 °F 60% 29.85 in 10.0 mi South 13.8 mph - N/A   Clear
1:15 AM 78.4 °F - 64.4 °F 62% 29.86 in 10.0 mi South 10.4 mph - N/A   Clear
1:35 AM 78.3 °F - 64.6 °F 63% 29.86 in 10.0 mi South 16.1 mph - N/A   Clear
1:55 AM 77.9 °F - 65.1 °F 65% 29.86 in 10.0 mi South 13.8 mph - N/A   Clear
2:15 AM 77.2 °F - 65.3 °F 67% 29.87 in 10.0 mi South 10.4 mph 18.4 mph N/A   Clear
2:35 AM 77.0 °F - 65.7 °F 68% 29.88 in 10.0 mi SSE 9.2 mph - N/A   Mostly Cloudy
2:55 AM 77.4 °F - 66.2 °F 68% 29.93 in 10.0 mi NE 5.8 mph - N/A   Overcast
3:15 AM 77.4 °F - 66.2 °F 68% 29.93 in 10.0 mi East 3.5 mph - N/A   Overcast
3:35 AM 77.2 °F - 66.4 °F 69% 29.93 in 10.0 mi East 6.9 mph - N/A   Overcast
3:55 AM 77.0 °F - 66.6 °F 70% 29.93 in 10.0 mi ESE 6.9 mph - N/A   Overcast
4:15 AM 77.0 °F - 66.2 °F 69% 29.93 in 10.0 mi ESE 9.2 mph - N/A   Overcast
4:35 AM 75.9 °F - 66.2 °F 72% 29.93 in 10.0 mi ESE 8.1 mph - N/A   Mostly Cloudy
4:55 AM 74.8 °F - 66.0 °F 74% 29.93 in 10.0 mi SE 10.4 mph - N/A   Scattered Clouds
5:15 AM 74.3 °F - 65.7 °F 74% 29.93 in 10.0 mi ESE 9.2 mph - N/A   Clear
5:35 AM 73.6 °F - 65.3 °F 75% 29.93 in 10.0 mi SE 10.4 mph - N/A   Clear
5:55 AM 73.4 °F - 65.3 °F 76% 29.94 in 10.0 mi SE 10.4 mph - N/A   Scattered Clouds
6:15 AM 72.9 °F - 65.3 °F 77% 29.94 in 10.0 mi SE 10.4 mph - N/A   Mostly Cloudy
6:35 AM 72.1 °F - 65.3 °F 79% 29.94 in 10.0 mi SE 8.1 mph - N/A   Scattered Clouds
6:55 AM 71.8 °F - 65.3 °F 80% 29.94 in 10.0 mi SE 10.4 mph - N/A   Clear
7:15 AM 72.7 °F - 65.7 °F 79% 29.94 in 10.0 mi SSE 11.5 mph - N/A   Clear
7:35 AM 73.9 °F - 66.2 °F 77% 29.95 in 10.0 mi SE 11.5 mph - N/A   Clear
7:55 AM 75.2 °F - 66.2 °F 73% 29.97 in 10.0 mi SE 9.2 mph - N/A   Clear
8:15 AM 75.9 °F - 66.4 °F 72% 29.97 in 10.0 mi SSE 12.7 mph - N/A   Clear
8:35 AM 76.5 °F - 65.8 °F 70% 29.98 in 10.0 mi SSE 13.8 mph - N/A   Clear
8:55 AM 77.4 °F - 65.7 °F 67% 29.98 in 10.0 mi South 11.5 mph 21.9 mph N/A   Scattered Clouds
9:15 AM 78.8 °F - 64.4 °F 61% 29.98 in 10.0 mi South 18.4 mph 21.9 mph N/A   Scattered Clouds
9:35 AM 79.0 °F - 64.0 °F 60% 29.97 in 10.0 mi South 17.3 mph 25.3 mph N/A   Scattered Clouds
9:55 AM 80.1 °F 81.8 °F 64.4 °F 59% 29.97 in 10.0 mi South 18.4 mph 24.2 mph N/A   Scattered Clouds
10:15 AM 81.3 °F 82.7 °F 63.7 °F 55% 29.97 in 10.0 mi South 19.6 mph 25.3 mph N/A   Scattered Clouds
10:35 AM 82.2 °F 83.3 °F 63.0 °F 52% 29.96 in 10.0 mi South 19.6 mph 25.3 mph N/A   Scattered Clouds
10:55 AM 82.9 °F 83.8 °F 62.8 °F 50% 29.97 in 10.0 mi South 17.3 mph 25.3 mph N/A   Mostly Cloudy
11:15 AM 83.5 °F 84.5 °F 63.0 °F 50% 29.97 in 10.0 mi South 19.6 mph 24.2 mph N/A   Mostly Cloudy
11:35 AM 84.4 °F 85.6 °F 63.9 °F 50% 29.96 in 7.0 mi South 20.7 mph 26.5 mph N/A   Mostly Cloudy
12:15 PM 85.6 °F 86.3 °F 62.8 °F 46% 29.94 in 10.0 mi South 19.6 mph 25.3 mph N/A   Scattered Clouds
12:35 PM 87.6 °F 87.9 °F 62.2 °F 42% 29.94 in 10.0 mi South 18.4 mph 25.3 mph N/A   Scattered Clouds
12:55 PM 88.5 °F 88.9 °F 61.9 °F 41% 29.93 in 10.0 mi South 18.4 mph 27.6 mph N/A   Scattered Clouds
1:15 PM 88.9 °F 88.8 °F 61.2 °F 39% 29.93 in 10.0 mi SSW 17.3 mph 24.2 mph N/A   Mostly Cloudy
1:35 PM 90.3 °F 90.2 °F 60.8 °F 37% 29.93 in 10.0 mi South 19.6 mph 25.3 mph N/A   Scattered Clouds
1:55 PM 89.4 °F 89.2 °F 61.0 °F 38% 29.93 in 10.0 mi South 16.1 mph 21.9 mph N/A   Mostly Cloudy
2:15 PM 90.1 °F 89.6 °F 59.9 °F 36% 29.92 in 10.0 mi South 13.8 mph 23.0 mph N/A   Mostly Cloudy
2:35 PM 91.2 °F 90.8 °F 60.1 °F 35% 29.90 in 10.0 mi South 18.4 mph 28.8 mph N/A   Mostly Cloudy
2:55 PM 92.3 °F 92.0 °F 60.3 °F 34% 29.89 in 10.0 mi SSE 15.0 mph 24.2 mph N/A   Scattered Clouds
3:15 PM 93.2 °F 93.3 °F 60.6 °F 34% 29.89 in 10.0 mi SSE 16.1 mph 23.0 mph N/A   Scattered Clouds
3:35 PM 92.5 °F 91.9 °F 59.9 °F 33% 29.89 in 10.0 mi South 18.4 mph 24.2 mph N/A   Scattered Clouds
3:55 PM 92.1 °F 91.4 °F 59.4 °F 33% 29.88 in 10.0 mi South 9.2 mph 21.9 mph N/A   Scattered Clouds
4:15 PM 93.9 °F 93.6 °F 59.9 °F 32% 29.88 in 10.0 mi South 17.3 mph 20.7 mph N/A   Mostly Cloudy
4:35 PM 92.8 °F 92.4 °F 60.1 °F 33% 29.87 in 10.0 mi SSE 17.3 mph 21.9 mph N/A   Mostly Cloudy
4:55 PM 93.7 °F 93.3 °F 60.1 °F 32% 29.87 in 10.0 mi SSE 15.0 mph 24.2 mph N/A   Scattered Clouds
5:15 PM 92.7 °F 92.1 °F 59.9 °F 33% 29.86 in 10.0 mi SE 15.0 mph 20.7 mph N/A   Mostly Cloudy
5:35 PM 93.0 °F 92.7 °F 60.1 °F 33% 29.86 in 10.0 mi South 13.8 mph 19.6 mph N/A   Mostly Cloudy
5:55 PM 92.1 °F 91.7 °F 59.9 °F 34% 29.86 in 10.0 mi South 13.8 mph 20.7 mph N/A   Scattered Clouds
6:15 PM 91.0 °F 90.2 °F 59.4 °F 34% 29.85 in 10.0 mi SSE 16.1 mph - N/A   Scattered Clouds
6:35 PM 91.0 °F 90.5 °F 60.1 °F 35% 29.85 in 10.0 mi SSE 18.4 mph 23.0 mph N/A   Scattered Clouds
6:55 PM 90.5 °F 90.1 °F 60.1 °F 36% 29.84 in 10.0 mi SE 11.5 mph 17.3 mph N/A   Scattered Clouds
7:15 PM 90.1 °F 89.6 °F 60.1 °F 36% 29.85 in 10.0 mi South 13.8 mph 19.6 mph N/A   Mostly Cloudy
7:35 PM 89.1 °F 88.8 °F 60.3 °F 38% 29.86 in 10.0 mi SSE 10.4 mph - N/A   Mostly Cloudy
7:55 PM 88.2 °F 87.8 °F 60.6 °F 39% 29.87 in 10.0 mi SSE 11.5 mph - N/A   Mostly Cloudy
8:15 PM 87.3 °F 87.2 °F 61.2 °F 41% 29.87 in 10.0 mi SSE 12.7 mph - N/A   Overcast
8:35 PM 86.4 °F 86.5 °F 61.5 °F 43% 29.86 in 10.0 mi SSE 12.7 mph - N/A   Mostly Cloudy
8:55 PM 85.5 °F 85.9 °F 61.9 °F 45% 29.87 in 10.0 mi SE 11.5 mph - N/A   Overcast
9:15 PM 85.3 °F 85.7 °F 61.9 °F 45% 29.88 in 10.0 mi SE 8.1 mph - N/A   Overcast
9:35 PM 84.6 °F 85.2 °F 62.1 °F 47% 29.87 in 10.0 mi SE 11.5 mph - N/A   Overcast
9:55 PM 83.3 °F 84.1 °F 62.2 °F 49% 29.89 in 10.0 mi SE 8.1 mph - N/A   Overcast
10:15 PM 83.1 °F 84.0 °F 62.6 °F 50% 29.89 in 10.0 mi SE 6.9 mph - N/A   Mostly Cloudy
10:35 PM 82.4 °F 83.4 °F 62.8 °F 51% 29.89 in 10.0 mi SE 9.2 mph - N/A   Scattered Clouds
10:55 PM 82.4 °F 83.5 °F 63.0 °F 52% 29.90 in 10.0 mi SE 10.4 mph 16.1 mph N/A   Scattered Clouds
11:15 PM 81.7 °F 83.0 °F 63.5 °F 54% 29.91 in 10.0 mi SSE 8.1 mph - N/A   Scattered Clouds
11:35 PM 81.5 °F 82.8 °F 63.5 °F 54% 29.90 in 10.0 mi SE 9.2 mph - N/A   Mostly Cloudy
11:55 PM 80.8 °F 82.2 °F 63.9 °F 56% 29.89 in 10.0 mi SE 12.7 mph - N/A   Overcast